This is the latest recevied weather packets stored in our database for station/object DW9280. If no packets are shown the sender has not sent any weather packets the latest 1 day(s).
| Time | Temp. | Humidity | Pressure | Rain* | Wind** | Luminosity | Snow |
|---|---|---|---|---|---|---|---|
| 1778011088 | 10.56° C | 74% | 1010.8 hPa | 0 mm | 1.79 m/s, 29° | 0 W/m² | - |
| 1778010911 | 10.56° C | 75% | 1010.8 hPa | 0 mm | 1.79 m/s, 0° | 0 W/m² | - |
| 1778010486 | 11.11° C | 75% | 1010.6 hPa | 0 mm | 2.24 m/s, 57° | 0 W/m² | - |
| 1778010189 | 11.11° C | 75% | 1010.6 hPa | 0 mm | 1.79 m/s, 24° | 0 W/m² | - |
| 1778009887 | 11.11° C | 75% | 1010.6 hPa | 0 mm | 2.24 m/s, 40° | 0 W/m² | - |
| 1778009586 | 11.11° C | 75% | 1010.5 hPa | 0 mm | 2.24 m/s, 39° | 0 W/m² | - |
| 1778009288 | 11.11° C | 75% | 1010.5 hPa | 0 mm | 2.24 m/s, 28° | 0 W/m² | - |
| 1778008986 | 11.11° C | 75% | 1010.4 hPa | 0 mm | 2.24 m/s, 26° | 0 W/m² | - |
| 1778008687 | 11.11° C | 75% | 1010.3 hPa | 0 mm | 1.79 m/s, 337° | 0 W/m² | - |
| 1778008091 | 11.11° C | 75% | 1010.2 hPa | 0 mm | 2.24 m/s, 332° | 0 W/m² | - |
| 1778007911 | 11.67° C | 75% | 1010.2 hPa | 0 mm | 2.24 m/s, 26° | 5 W/m² | - |
| 1778007487 | 11.67° C | 75% | 1010.2 hPa | 0 mm | 2.68 m/s, 15° | 7 W/m² | - |
| 1778007187 | 11.67° C | 76% | 1010.1 hPa | 0 mm | 2.24 m/s, 32° | 9 W/m² | - |
| 1778006887 | 11.67° C | 76% | 1010.2 hPa | 0 mm | 1.79 m/s, 319° | 11 W/m² | - |
| 1778006586 | 11.67° C | 76% | 1010.2 hPa | 0 mm | 2.24 m/s, 344° | 14 W/m² | - |
| 1778006288 | 11.67° C | 76% | 1010.1 hPa | 0 mm | 2.68 m/s, 17° | 12 W/m² | - |
| 1778005986 | 11.67° C | 75% | 1010.2 hPa | 0 mm | 2.68 m/s, 9° | 23 W/m² | - |
| 1778005687 | 11.67° C | 75% | 1010.1 hPa | 0 mm | 2.68 m/s, 349° | 28 W/m² | - |
| 1778005387 | 11.67° C | 75% | 1010.1 hPa | 0 mm | 3.13 m/s, 22° | 35 W/m² | - |
| 1778005212 | 11.67° C | 75% | 1010.1 hPa | 0 mm | 2.24 m/s, 33° | 35 W/m² | - |
| 1778004788 | 11.67° C | 75% | 1010.1 hPa | 0 mm | 2.24 m/s, 39° | 54 W/m² | - |
| 1778004488 | 12.22° C | 75% | 1010.1 hPa | 0 mm | 2.68 m/s, 350° | 51 W/m² | - |
| 1778004188 | 12.22° C | 74% | 1010.1 hPa | 0 mm | 2.68 m/s, 13° | 54 W/m² | - |
| 1778003886 | 12.22° C | 75% | 1010.1 hPa | 0 mm | 2.24 m/s, 19° | 69 W/m² | - |
| 1778003588 | 12.22° C | 75% | 1010.2 hPa | 0 mm | 2.24 m/s, 25° | 76 W/m² | - |
* Rain latest hour (hover to see other rain measurements)
** Current wind speed in m/s (hover to see current wind gust speed)